sat.trackr.live / text

‹ back to catalog

STARLINK-3616

NORAD 51782 · 2022-017Q

PAYLOAD ACTIVE UNKNOWN

§ Identity

Operator
Country
US
Launch date
2022-02-25
Launch site
AFWTR
Launch vehicle
Mass (kg)
RCS (m²)

Purposes: comms

External: N2YO · Heavens-Above · Gunter

§ Orbital elements

Epoch: 2026-09-20T04:20:16.528704Z

Period
93.85 min
Inclination
53.1605°
Eccentricity
0.0001357
Mean motion
15.34394084 rev/d
Perigee alt
461.8 km
Apogee alt
463.6 km
Semi-major
6,840.9 km
B*
-3.7773e-6
RAAN
179.5600°
Arg perigee
76.7930°
Mean anomaly
283.3224°
Rev number
25,177

§ Raw data

STARLINK-36161 51782U 22017Q   26263.18074686 -.00000504  00000+0 -37773-5 0  99962 51782  53.1605 179.5600 0001357  76.7930 283.3224 15.34394084251778

JSON: /api/v1/satellites/51782 · /tle

For live sub-satellite position, see the globe view (requires WebGL).

§ Visibility from observer

Set your observer location to see the next 7 days of passes ≥ 10°. The values pass through the URL so the page stays shareable.

No JS? Fill the form by hand. The geolocation button needs JavaScript.